www.pogodaiklimat.ru

Погода и климат >> Архив погоды >> Бразилия >> Мату-Гросу >> Алту-Такуари


ПОГОДА в Алту-Такуари

  • Прогноз погоды в Алту-Такуари
  • Монитор погоды в Алту-Такуари

АРХИВ ПОГОДЫ в Алту-Такуари

Время (UTC), дата Ветер
(напр.,м/с)
 
Видим.   Явления Облачность Т
(С)
Тd
(С)
f
(%)
Тe
(С)
Тes
(С)
Комфортность P
(гПа)
Po
(гПа)
Тmin
(С)
Tmax
(С)
R
(мм)
R24
(мм)
S
(см)
07 10.07 штиль 0
{1}
н/о н/о +10.1 +5.2 72 +10 +10 1023.0 921.9
08 10.07 В 1
{1}
н/о н/о +12.5 +5.7 63 +14 +14 1022.1 921.9
09 10.07 штиль 0
{1}
н/о н/о +11.6 +5.3 65 +11 +11 1022.7 922.1
10 10.07 штиль 0
{1}
н/о н/о +13.4 +5.4 58 +13 +13 1022.5 922.5
11 10.07 штиль 0
{1}
н/о н/о +16.7 +8.5 58 +17 +17 1021.6 922.8
12 10.07 В 1
{1}
н/о н/о +20.8 +7.2 41 +23 +23 комфорт 1020.8 923.4
13 10.07 СВ 2
{2}
н/о н/о +23.0 +7.1 36 +24 +24 комфорт 1020.3 923.6
14 10.07 СВ 2
{2}
н/о н/о +25.0 +6.6 31 +25 +25 комфорт 1019.4 923.4
15 10.07 СВ 2
{3}
н/о н/о +27.0 +3.9 23 +26 +26 жарко 1018.0 922.8
16 10.07 З 1
{3}
н/о н/о +28.2 +3.4 20 +26 +26 жарко 1016.9 922.1
17 10.07 ЮВ 2
{3}
н/о н/о +27.2 +3.8 22 +26 +26 жарко 1016.1 921.1
18 10.07 С 1
{3}
н/о н/о +28.9 +4.1 21 +27 +27 жарко 1014.9 920.5
19 10.07 ЮЗ 2
{3}
н/о н/о +27.4 +5.3 24 +26 +26 жарко 1014.8 920.0
20 10.07 Ю 2
{3}
н/о н/о +26.6 +5.3 26 +26 +26 жарко 1015.1 920.0
21 10.07 ЮЗ 1
{3}
н/о н/о +22.6 +6.2 35 +23 +23 комфорт 1016.5 920.1
22 10.07 штиль 0
{2}
н/о н/о +19.2 +6.9 45 +20 +20 1017.9 920.3
23 10.07 СВ 1
{1}
н/о н/о +17.0 +8.1 56 +19 +19 1019.2 920.7
00 11.07 штиль 0
{1}
н/о н/о +15.8 +7.4 57 +16 +16 1019.8 920.9
01 11.07 штиль 0
{1}
н/о н/о +15.2 +6.3 55 +15 +15 1020.2 921.1
02 11.07 штиль 0
{2}
н/о н/о +13.9 +7.2 64 +14 +14 1020.6 921.0
03 11.07 штиль 0
{1}
н/о н/о +11.6 +6.4 70 +11 +11 1020.9 920.5
04 11.07 СВ 2
{3}
н/о н/о +17.2 +6.7 50 +18 +18 1018.3 920.0
05 11.07 В 1
{2}
н/о н/о +16.9 +6.2 49 +18 +18 1018.4 920.0
06 11.07 В 1
{2}
н/о н/о +16.9 +5.7 48 +18 +18 1018.2 919.8
07 11.07 В 1
{2}
н/о н/о +16.0 +6.2 52 +17 +17 1018.4 919.7
08 11.07 В 2
{2}
н/о н/о +15.3 +6.0 54 +16 +16 1018.7 919.7
09 11.07 В 2
{2}
н/о н/о +15.4 +5.4 51 +16 +16 1019.1 920.1
10 11.07 В 2
{2}
н/о н/о +15.1 +5.4 52 +15 +15 1019.5 920.4
11 11.07 В 2
{3}
н/о н/о +16.9 +5.4 47 +17 +17 1019.3 920.8
12 11.07 В 2
{3}
н/о н/о +19.7 +5.8 40 +21 +21 комфорт 1019.2 921.6
13 11.07 СВ 2
{3}
н/о н/о +21.7 +4.9 33 +22 +22 комфорт 1019.1 922.1
14 11.07 СВ 2
{4}
н/о н/о +24.3 +5.5 30 +24 +24 комфорт 1018.1 922.0
15 11.07 С 2
{4}
н/о н/о +26.4 +4.7 25 +26 +26 жарко 1016.5 921.2
16 11.07 З 1
{5}
н/о н/о +26.7 +4.0 23 +25 +25 комфорт 1015.3 920.2
17 11.07 В 1
{5}
н/о н/о +26.4 +3.0 22 +25 +25 комфорт 1014.4 919.3
18 11.07 ЮВ 1
{3}
н/о н/о +26.7 +3.3 22 +25 +25 комфорт 1013.4 918.5
19 11.07 СВ 1
{2}
н/о н/о +27.6 +3.9 22 +26 +26 жарко 1012.4 917.9
20 11.07 СВ 1
{3}
н/о н/о +26.9 +3.9 23 +26 +26 жарко 1012.5 917.8
21 11.07 штиль 0
{2}
н/о н/о +24.3 +4.0 27 +24 +24 комфорт 1013.5 917.9
22 11.07 штиль 0
{1}
н/о н/о +17.8 +4.8 42 +18 +18 1016.1 918.2
23 11.07 штиль 0
{2}
н/о н/о +14.6 +5.4 54 +14 +14 1017.7 918.6
01 12.07 штиль 0
{1}
н/о н/о +14.3 +5.0 54 +14 +14 1018.7 919.4
02 12.07 штиль 0
{1}
н/о н/о +12.8 +7.2 69 +12 +12 1019.5 919.6
03 12.07 Ю 1
{1}
н/о н/о +13.5 +5.7 59 +15 +15 1019.1 919.5
04 12.07 ЮВ 1
{1}
н/о н/о +13.4 +5.3 58 +15 +15 1019.0 919.4
05 12.07 ЮВ 1
{1}
н/о н/о +14.7 +5.6 54 +16 +16 1018.3 919.2
07 12.07 штиль 0
{1}
н/о н/о +12.1 +5.4 64 +12 +12 1018.5 918.5
08 12.07 штиль 0
{1}
н/о н/о +11.6 +5.3 65 +11 +11 1018.7 918.5
09 12.07 штиль 0
{1}
н/о н/о +13.1 +5.0 58 +13 +13 1018.5 918.8
10 12.07 штиль 0
{1}
н/о н/о +9.7 +3.9 67 +9 +9 1020.6 919.6
11 12.07 штиль 0
{1}
н/о н/о +15.5 +7.3 58 +15 +15 1019.1 920.2
12 12.07 СВ 1
{1}
н/о н/о +21.3 +6.2 37 +22 +22 комфорт 1017.6 920.7
14 12.07 СВ 2
{3}
н/о н/о +26.4 +4.6 25 +26 +26 жарко 1016.1 920.9
15 12.07 СЗ 2
{5}
н/о н/о +27.7 +4.4 23 +26 +26 жарко 1015.5 920.7
16 12.07 С 2
{4}
н/о н/о +28.3 +4.6 22 +27 +27 жарко 1014.4 919.9
17 12.07 С 2
{5}
н/о н/о +28.2 +4.9 23 +27 +27 жарко 1013.8 919.3
18 12.07 С 1
{4}
н/о н/о +28.3 +4.9 23 +27 +27 жарко 1012.9 918.5
19 12.07 С 1
{4}
н/о н/о +28.7 +4.9 22 +27 +27 жарко 1012.4 918.2
20 12.07 СЗ 2
{4}
н/о н/о +27.7 +4.8 23 +26 +26 жарко 1012.9 918.4
21 12.07 З 1
{3}
н/о н/о +23.5 +5.9 32 +24 +24 комфорт 1014.7 918.7
22 12.07 З 1
{2}
н/о н/о +20.8 +8.8 46 +24 +24 комфорт 1016.4 919.4
23 12.07 ЮЗ 1
{2}
н/о н/о +19.8 +7.4 45 +22 +22 комфорт 1017.1 919.7
00 13.07 З 1
{1}
н/о н/о +18.2 +8.2 52 +20 +20 1018.0 920.0
01 13.07 штиль 0
{1}
н/о н/о +18.6 +8.0 50 +19 +19 1018.1 920.3
02 13.07 штиль 0
{1}
н/о н/о +16.1 +7.6 57 +16 +16 1019.1 920.4
03 13.07 штиль 0
{1}
н/о н/о +14.0 +7.0 63 +14 +14 1019.7 920.2
04 13.07 штиль 0
{1}
н/о н/о +14.8 +8.3 65 +15 +15 1019.2 920.0
05 13.07 штиль 0
{1}
н/о н/о +14.7 +7.9 64 +15 +15 1018.8 919.6
06 13.07 штиль 0
{1}
н/о н/о +14.1 +7.9 66 +14 +14 1018.8 919.4
07 13.07 штиль 0
{1}
н/о н/о +15.0 +8.4 65 +15 +15 1018.1 919.1
08 13.07 штиль 0 н/о н/о +14.4 +8.5 68 +14 +14 1018.5 919.3
09 13.07 штиль 0
{1}
н/о н/о +14.4 +8.1 66 +14 +14 1018.8 919.5
10 13.07 ЮЗ 1
{2}
н/о н/о +13.5 +8.1 70 +15 +15 1019.9 920.2
11 13.07 штиль 0
{1}
н/о н/о +18.2 +10.6 61 +18 +18 1019.1 921.0
12 13.07 штиль 0
{1}
н/о н/о +22.6 +7.9 39 +24 +24 комфорт 1018.2 921.6
14 13.07 С 2
{2}
н/о н/о +27.5 +8.8 31 +28 +28 жарко 1016.9 921.9
15 13.07 СЗ 1
{3}
н/о н/о +26.4 +7.0 29 +26 +26 жарко 1016.5 921.2
17 13.07 С 1
{4}
н/о н/о +29.3 +7.3 25 +28 +28 жарко 1013.4 919.3
18 13.07 СЗ 2
{4}
н/о н/о +27.3 +7.8 29 +27 +27 жарко 1013.2 918.5
19 13.07 С 2
{4}
н/о н/о +27.0 +9.4 33 +27 +27 жарко 1013.0 918.2
20 13.07 СЗ 2
{3}
н/о н/о +27.7 +9.6 32 +28 +28 жарко 1012.5 918.0
21 13.07 С 1
{3}
н/о н/о +24.6 +11.0 42 +26 +26 жарко 1013.9 918.3
22 13.07 Ю 1
{1}
н/о н/о +20.4 +11.1 55 +24 +24 комфорт 1015.6 918.6
23 13.07 штиль 0
{1}
н/о н/о +20.4 +11.2 55 +22 +22 комфорт 1016.1 919.0
00 14.07 штиль 0
{1}
н/о н/о +17.6 +10.1 61 +18 +18 1017.4 919.3
01 14.07 штиль 0
{1}
н/о н/о +16.9 +10.5 66 +17 +17 1018.1 919.7
02 14.07 штиль 0
{1}
н/о н/о +16.7 +10.3 66 +17 +17 1018.2 919.7
03 14.07 штиль 0 н/о н/о +15.9 +10.1 68 +16 +16 1018.3 919.6
04 14.07 штиль 0 н/о н/о +15.9 +10.6 71 +16 +16 1017.8 919.1
05 14.07 СВ 1
{1}
н/о н/о +16.2 +10.5 69 +18 +18 1017.4 918.9
06 14.07 штиль 0
{1}
н/о н/о +14.7 +10.5 76 +14 +14 1017.7 918.6
07 14.07 штиль 0
{1}
н/о н/о +14.5 +9.3 71 +14 +14 1017.5 918.4
08 14.07 штиль 0
{1}
н/о н/о +14.9 +9.8 72 +15 +15 1017.5 918.5
09 14.07 штиль 0
{1}
н/о н/о +15.4 +10.1 71 +15 +15 1017.7 918.9
10 14.07 штиль 0
{1}
н/о н/о +18.6 +9.9 57 +19 +19 1017.3 919.5
11 14.07 ЮЗ 1
{2}
н/о н/о +18.8 +10.4 58 +21 +21 комфорт 1017.9 920.1
12 14.07 Ю 1
{1}
н/о н/о +20.1 +11.3 57 +23 +23 комфорт 1018.3 920.9
13 14.07 ЮВ 1
{1}
н/о н/о +24.4 +10.3 41 +25 +25 комфорт 1017.1 921.2
14 14.07 СВ 1
{2}
н/о н/о +24.0 +10.3 42 +25 +25 комфорт 1017.4 921.3
15 14.07 СВ 1
{2}
н/о н/о +26.5 +10.1 36 +27 +27 жарко 1015.7 920.5
16 14.07 С 2
{4}
н/о н/о +29.5 +8.5 27 +29 +29 жарко 1013.6 919.5
17 14.07
{4}
н/о н/о +28.2 +7.6 27 1012.9 918.5
18 14.07 СЗ 2
{3}
н/о н/о +28.8 +6.5 24 +28 +28 жарко 1011.9 917.8
19 14.07 СЗ 2
{3}
н/о н/о +28.5 +6.8 25 +28 +28 жарко 1011.6 917.4
20 14.07 С 2
{3}
н/о н/о +27.0 +8.5 31 +27 +27 жарко 1012.1 917.4
21 14.07 С 1
{3}
н/о н/о +24.8 +9.9 39 +26 +26 жарко 1013.0 917.6
22 14.07 СЗ 1
{1}
н/о н/о +21.4 +9.9 48 +23 +23 комфорт 1014.5 917.9
23 14.07 ЮЗ 1
{2}
н/о н/о +20.3 +10.1 52 +23 +23 комфорт 1015.6 918.5
00 15.07 штиль 0
{1}
н/о н/о +17.7 +10.9 64 +18 +18 1017.0 919.0
01 15.07 штиль 0
{1}
н/о н/о +18.7 +11.5 63 +19 +19 1016.9 919.2
02 15.07 Ю 1
{1}
н/о н/о +17.6 +11.3 67 +19 +19 1017.2 919.1
03 15.07 штиль 0
{1}
н/о н/о +16.5 +10.8 69 +16 +16 1017.3 918.9
04 15.07 Ю 1
{1}
н/о н/о +15.7 +10.5 71 +17 +17 1017.5 918.8
05 15.07 Ю 1
{1}
н/о н/о +16.0 +10.1 68 +17 +17 1016.7 918.2
06 15.07 Ю 1
{1}
н/о н/о +15.0 +10.4 74 +16 +16 1017.0 918.1
07 15.07 ЮЗ 1
{1}
н/о н/о +13.7 +9.9 78 +15 +15 1017.2 917.9
08 15.07 штиль 0
{1}
н/о н/о +16.5 +10.7 69 +16 +16 1016.3 918.0
09 15.07 штиль 0
{1}
н/о н/о +15.7 +10.5 71 +16 +16 1017.0 918.3
10 15.07 штиль 0
{1}
н/о н/о +15.2 +10.8 75 +15 +15 1017.7 918.8
12 15.07 штиль 0 н/о н/о +22.8 +12.7 53 +26 +26 жарко 1016.5 920.1
13 15.07 В 1
{2}
н/о н/о +25.6 +11.4 41 +27 +27 жарко 1016.0 920.5
14 15.07 СВ 2
{3}
н/о н/о +27.2 +9.5 33 +28 +28 жарко 1015.3 920.4
15 15.07 СВ 2
{4}
н/о н/о +29.1 +9.2 29 +29 +29 жарко 1013.9 919.7
16 15.07 СЗ 2
{6}
н/о н/о +30.0 +7.4 24 +29 +29 жарко 1012.9 919.0
17 15.07 СЗ 2
{6}
н/о н/о +29.9 +7.0 24 +29 +29 жарко 1011.7 917.9
18 15.07 СЗ 2
{5}
н/о н/о +29.4 +6.7 24 +28 +28 жарко 1011.4 917.5
20 15.07 З 3
{5}
н/о н/о +29.0 +5.8 23 +28 +28 жарко 1011.5 917.5
21 15.07 З 2
{4}
н/о н/о +25.4 +6.6 30 +25 +25 комфорт 1013.0 917.8
22 15.07 З 2
{2}
н/о н/о +23.1 +7.2 36 +24 +24 комфорт 1014.3 918.2
23 15.07 З 2
{2}
н/о н/о +22.3 +7.8 39 +23 +23 комфорт 1015.1 918.7
00 16.07 З 2
{3}
н/о н/о +19.0 +8.0 49 +20 +20 1016.8 919.2
01 16.07 З 2
{3}
н/о н/о +20.4 +8.4 46 +22 +22 комфорт 1016.8 919.7
02 16.07 ЮЗ 2
{3}
н/о н/о +20.5 +9.4 49 +23 +23 комфорт 1017.0 919.9
03 16.07 ЮЗ 2
{3}
н/о н/о +19.4 +10.0 55 +21 +21 комфорт 1017.4 919.9
04 16.07 Ю 2
{3}
н/о н/о +19.1 +10.5 57 +20 +20 1017.4 919.8
05 16.07 Ю 2
{3}
н/о н/о +17.7 +11.0 65 +18 +18 1017.6 919.5
06 16.07 Ю 2
{3}
н/о н/о +16.9 +11.5 70 +17 +17 1017.8 919.4
07 16.07 ЮВ 3
{4}
н/о н/о +16.8 +12.1 74 +17 +17 1017.8 919.4
08 16.07 ЮВ 1
{4}
н/о н/о +16.2 +11.8 75 +17 +17 1018.2 919.6
09 16.07 ЮВ 2
{2}
н/о н/о +16.2 +11.9 76 +17 +17 1018.6 919.9
10 16.07 В 1
{3}
н/о н/о +16.1 +11.5 74 +17 +17 1019.3 920.5
11 16.07 В 1
{3}
н/о н/о +17.1 +11.8 71 +18 +18 1019.7 921.2
12 16.07 В 2
{3}
н/о н/о +19.7 +11.9 61 +22 +22 комфорт 1019.3 921.7
13 16.07 В 2
{4}
н/о н/о +21.1 +12.2 57 +23 +23 комфорт 1019.1 922.0
14 16.07 В 3
{4}
н/о н/о +23.4 +10.9 45 +26 +26 жарко 1018.2 921.9
15 16.07 ЮВ 2
{4}
н/о н/о +25.2 +11.2 41 +26 +26 жарко 1017.2 921.5
16 16.07 ЮВ 1
{3}
н/о н/о +26.9 +10.1 35 +27 +27 жарко 1015.9 920.8
17 16.07 ЮВ 1
{2}
н/о н/о +26.5 +11.2 38 +27 +27 жарко 1015.0 919.9
18 16.07 ЮВ 2
{3}
н/о н/о +26.5 +11.3 39 +28 +28 жарко 1014.3 919.3
19 16.07 ЮЗ 2
{4}
н/о н/о +27.3 +11.0 36 +28 +28 жарко 1013.7 919.0
20 16.07 ЮЗ 1
{3}
н/о н/о +25.8 +11.4 41 +27 +27 жарко 1014.5 919.2
21 16.07 ЮЗ 2
{2}
н/о н/о +24.5 +11.7 45 +26 +26 жарко 1015.2 919.5
22 16.07 ЮЗ 2
{2}
н/о н/о +22.0 +12.2 54 +24 +24 комфорт 1016.3 919.7
23 16.07 Ю 1
{2}
н/о н/о +19.8 +12.2 62 +23 +23 комфорт 1017.8 920.4
00 17.07 ЮВ 1
{2}
н/о н/о +18.7 +12.1 65 +20 +20 1019.0 921.1
01 17.07 ЮВ 2
{4}
н/о н/о +19.4 +12.5 64 +21 +21 комфорт 1019.1 921.4
02 17.07 ЮВ 2
{4}
н/о н/о +17.8 +13.2 74 +18 +18 1019.8 921.5
03 17.07 ЮВ 2
{3}
н/о н/о +17.2 +13.2 77 +18 +18 1019.9 921.4
04 17.07 ЮВ 2
{3}
н/о н/о +16.8 +13.1 79 +17 +17 1020.1 921.5
05 17.07 ЮВ 2
{4}
н/о н/о +16.1 +13.0 82 +16 +16 1020.1 921.3

 

Местоположение метеостанции Алту-Такуари (Мату-Гросу, Бразилия): широта -17.82 долгота -53.28 высота над уровнем моря 877 м.

В архиве по умолчанию представлена погода в Алту-Такуари за последнюю неделю. Архивные данные за месяц целиком и за предыдущие месяцы, начиная с января 2011 года, Вы можете получить, выбрав интересующий диапазон дат из раскрывающегося списка и нажав кнопку "Ввод!".


*Определитесь, кто Вы:
робот инопланетянин человек

Внимание! Время в таблицах - всемирное. Для получения местного времени необходимо прибавить поправку, которая равна -3 ч.

Смотрите также архив погоды в соседних городах и на ближайших метеорологических станциях:

Погода в Альто-Арагуая (Мату-Гросу, Бразилия) (54 км)
Погода в Коста Рика (Мату-Гросу-ду-Сул, Бразилия) (75 км)
Погода в Минейрусе (Гояс, Бразилия) (77 км)
Погода в Шападан-ду-Суле (Мату-Гросу-ду-Сул, Бразилия) (131 км)
Погода в Итикире (Мату-Гросу, Бразилия) (148 км)
Погода в Соноре (Мату-Гросу-ду-Сул, Бразилия) (158 км)
Погода в Жатаи (Гояс, Бразилия) (166 км)
Погода в Гиратинге (Мату-Гросу, Бразилия) (172 км)
Погода в Кошине (Мату-Гросу-ду-Сул, Бразилия) (172 км)
Погода в Каяпонии (Гояс, Бразилия) (182 км)

Пояснения к столбцам:

Ветер - указаны скорость ветра в м/с - средняя за 10 мин, порывы в срок и между сроками (в фигурных скобках) и направление, откуда дует ветер: С - северный, СВ - северо-восточный, В - восточный, ЮВ - юго-восточный, Ю - южный, ЮЗ - юго-западный, З - западный, СЗ - северо-западный.
Видимость - горизонтальная дальность видимости в метрах или километрах. При видимости от 1 до 10 км при отсутствии осадков обычно наблюдается дымка, при ухудшении видимости до 1 км и менее - туман. В сухую погоду видимость может ухудшаться дымом, пылью или мглою.
Явления - указаны атмосферные явления, наблюдавшиеся в срок или в последний час перед сроком; фигурными скобками обозначены явления, наблюдавшиеся между сроками (за 1-3 часа до срока); квадратными скобками обозначены град или гололедные отложения с указанием их диаметра в мм.
Облачность - указаны через наклонную черту общая и нижняя облачность в баллах и высота нижней границы облаков в метрах; квадратными скобками обозначены формы облаков: Ci - перистые, Cs - перисто-слоистые, Cc - перисто-кучевые, Ac - высококучевые, As - высокослоистые, Sc - слоисто-кучевые, Ns - слоисто-дождевые, Cu - кучевые, Cb - кучево-дождевые. Подробнее классификацию облаков см. в Атласе облаков (PDF).
T - Температура воздуха - температура, измеренная на высоте 2 м над землей.
Td - Температура точки росы - температура, при понижении до которой содержащийся в воздухе водяной пар достигнет насыщения.
f - Относительная влажность воздуха - влажноcть воздуха, измеренная на высоте 2 м над землей.
Te - Эффективная температура - температура, которую ощущает одетый по сезону человек в тени. Характеристика душности погоды. При расчете учитывается влияние влажности воздуха и скорости ветра на теплоощущения человека.
Tes - Эффективная температура на солнце - температура, которую ощущает человек, с поправкой на солнечный нагрев. Характеристика знойности погоды. Зависит от высоты солнца над горизонтом, облачности и скорости ветра. Ночью, в пасмурную погоду, а также при ветре 12 м/с и более поправка равна нулю.
P - Атмосферное давление - приведенное к уровню моря атмосферное давление.
Po - Атмосферное давление - измеренное на уровне метеостанции атмосферное давление.
Tmin - Минимальная температура - минимум температуры воздуха на высоте 2 м над землей.
Tmax - Максимальная температура - максимум температуры воздуха на высоте 2 м над землей.
R - Количество осадков - Количество выпавших осадков за период времени, мм. При наведении курсора мыши на число - период времени, за который выпало указанное количество осадков.
R24 - Количество осадков - Количество выпавших осадков за 24 часа, мм.
S - Снежный покров - Высота снежного покрова, см. При наведении курсора мыши на число - состояние снежного покрова и степень покрытия местности в баллах.